www.pogodaiklimat.ru

Погода и климат >> Архив погоды >> Ирландия >> Roches Point


ПОГОДА в Roches Point

  • Прогноз погоды в Roches Point
  • Монитор погоды в Roches Point
  • Климат города

АРХИВ ПОГОДЫ в Roches Point

Время (UTC), дата Ветер
(напр.,м/с)
 
Видим.   Явления Облачность Т
(С)
Тd
(С)
f
(%)
Тe
(С)
Тes
(С)
Комфортность P
(гПа)
Po
(гПа)
Тmin
(С)
Tmax
(С)
R
(мм)
R24
(мм)
S
(см)
01 13.07 СВ 4 45 км н/о +15.6 +12.4 81 +15 +15 1023.4 1018.5
02 13.07 СВ 4 40 км н/о +15.1 +12.1 82 +14 +14 1023.5 1018.5
03 13.07 СВ 2 45 км н/о +15.1 +12.1 82 +15 +15 1023.5 1018.6
04 13.07 С 2 50 км н/о +15.0 +11.9 82 +15 +15 1023.7 1018.7
05 13.07 СВ 2 50 км н/о +14.0 +10.6 80 +13 +13 1023.5 1018.5
06 13.07 С 2 45 км н/о +14.8 +11.2 79 +15 +15 1023.2 1018.3 +14.0
07 13.07 С 1 40 км н/о +16.6 +11.2 70 +17 +17 1023.2 1018.3
08 13.07 СЗ 2 40 км н/о +17.0 +11.7 71 +17 +17 1023.4 1018.4
09 13.07 СЗ 1 27 км н/о +17.6 +11.9 69 +19 +19 1023.3 1018.4
10 13.07 ЮВ 4 35 км н/о +19.1 +11.6 62 +20 +20 1023.3 1018.4
11 13.07 ЮВ 4 40 км н/о +19.0 +12.6 66 +20 +20 1023.3 1018.4
12 13.07 ЮВ 4 35 км н/о +20.7 +13.4 63 +23 +23 комфорт 1023.2 1018.3
13 13.07 ЮВ 5 35 км н/о +20.9 +13.3 62 +23 +23 комфорт 1022.9 1018.1
14 13.07 Ю 5 35 км н/о +21.0 +14.1 65 +24 +24 комфорт 1022.7 1017.8
15 13.07 Ю 5 27 км н/о +19.7 +14.7 73 +21 +21 комфорт 1022.5 1017.6
16 13.07 Ю 6 30 км н/о +18.9 +15.4 80 +20 +20 1022.2 1017.3
17 13.07 Ю 6 30 км н/о +20.5 +15.8 74 +23 +23 комфорт 1021.8 1016.9
18 13.07 ЮЗ 7 35 км н/о +19.4 +14.0 71 +20 +20 1021.4 1016.6 +21.3
19 13.07 ЮЗ 6 40 км н/о +19.3 +13.2 68 +20 +20 1021.2 1016.3
20 13.07 ЮЗ 5 40 км н/о +17.9 +13.6 76 +17 +17 1021.3 1016.4
21 13.07 ЮЗ 4 50 км н/о +16.7 +13.0 79 +16 +16 1021.6 1016.6
22 13.07 З 3 50 км н/о +16.1 +12.7 80 +16 +16 1021.6 1016.7
23 13.07 З 4 30 км н/о +15.8 +12.8 82 +15 +15 1021.7 1016.7
00 14.07 З 4 21 км н/о +15.0 +12.4 84 +14 +14 1021.8 1016.9
01 14.07 СЗ 4 23 км н/о +14.9 +12.5 86 +14 +14 1021.7 1016.7
02 14.07 СЗ 4 29 км н/о +14.3 +12.4 88 +13 +13 1021.5 1016.6
03 14.07 СЗ 2 30 км н/о +13.9 +12.1 89 +13 +13 1021.4 1016.4
04 14.07 СЗ 2 29 км н/о +13.2 +11.7 91 +12 +12 1021.0 1016.1
05 14.07 З 3 40 км н/о +13.2 +11.8 91 +12 +12 1020.9 1015.9
06 14.07 С 1 35 км н/о +14.2 +11.8 85 +15 +15 1020.8 1015.9 +12.5
07 14.07 Ю 1 40 км н/о +15.8 +12.1 79 +16 +16 1020.9 1016.0
08 14.07 Ю 3 29 км н/о +17.2 +13.0 76 +17 +17 1020.8 1015.9
09 14.07 Ю 4 40 км н/о +18.0 +13.8 76 +18 +18 1020.4 1015.5
10 14.07 ЮЗ 7 40 км н/о +18.8 +12.4 66 +19 +19 1020.1 1015.3
11 14.07 Ю 7 35 км н/о +20.1 +13.9 67 +22 +22 комфорт 1019.5 1014.7
12 14.07 Ю 9 29 км н/о +20.1 +14.4 70 +22 +22 комфорт 1019.3 1014.5
13 14.07 Ю 9 35 км н/о +20.4 +14.2 68 +22 +22 комфорт 1019.1 1014.2
14 14.07 Ю 9 26 км н/о +20.2 +13.8 67 +22 +22 комфорт 1018.8 1014.0
15 14.07 ЮЗ 9 25 км н/о +20.4 +13.5 65 +22 +22 комфорт 1018.6 1013.7
16 14.07 ЮЗ 9 35 км н/о +20.2 +14.1 68 +22 +22 комфорт 1018.5 1013.6
17 14.07 ЮЗ 10 40 км н/о +19.5 +11.7 61 +20 +20 1018.1 1013.3
18 14.07 ЮЗ 9 35 км н/о +18.9 +12.8 68 +19 +19 1017.8 1013.0 +20.9
19 14.07 ЮЗ 7 50 км н/о +18.7 +12.5 67 +19 +19 1017.6 1012.8
20 14.07 ЮЗ 6 50 км н/о +18.1 +13.6 75 +18 +18 1017.6 1012.7
21 14.07 ЮЗ 5 40 км н/о +17.6 +13.6 77 +17 +17 1017.5 1012.6
22 14.07 ЮЗ 5 40 км н/о +17.4 +13.9 80 +17 +17 1017.4 1012.5
23 14.07 ЮЗ 4 30 км н/о +17.4 +14.3 82 +17 +17 1017.2 1012.3
00 15.07 ЮЗ 5 30 км н/о +17.7 +14.5 82 +17 +17 1016.8 1012.0
01 15.07 ЮЗ 6 35 км н/о +17.8 +14.5 81 +17 +17 1016.3 1011.4
02 15.07 ЮЗ 6 24 км слаб. ливневой дождь н/о +17.0 +14.0 82 +16 +16 1016.0 1011.1
03 15.07 ЮЗ 6 40 км в посл. час дождь {ливн. осадки} н/о +17.3 +14.2 82 +16 +16 1015.6 1010.8
04 15.07 ЮЗ 5 35 км н/о +17.4 +14.3 82 +17 +17 1015.2 1010.3
05 15.07 ЮЗ 6 14 км слаб. ливневой дождь н/о +16.6 +15.1 91 +15 +15 1014.8 1009.9
06 15.07 ЮЗ 6 14 км слаб. ливневой дождь н/о +16.6 +15.4 93 +15 +15 1015.0 1010.1 +16.3 0.6
07 15.07 ЮЗ 7 2700 м морось н/о +16.4 +15.8 96 +15 +15 1014.8 1009.9
08 15.07 ЮЗ 8 3000 м морось н/о +16.6 +16.0 96 +15 +15 1014.6 1009.7
09 15.07 Ю 8 2600 м морось н/о +16.7 +16.3 97 +15 +15 1014.3 1009.5
10 15.07 ЮЗ 7 5000 м морось н/о +17.1 +16.6 97 +16 +16 1014.4 1009.6
11 15.07 Ю 4 14 км в посл. час морось {ливн. осадки} н/о +16.8 +15.8 94 +16 +16 1014.5 1009.6
12 15.07 ЮЗ 4 3200 м слаб. ливневой дождь {морось} н/о +16.8 +16.1 96 +16 +16 1014.2 1009.3 1
13 15.07 Ю 5 5000 м слаб. дождь н/о +17.1 +16.6 97 +16 +16 1013.9 1009.0
14 15.07 Ю 5 7000 м слаб. ливневой дождь н/о +17.0 +16.4 96 +16 +16 1013.7 1008.9
15 15.07 ЮЗ 6 27 км слаб. ливневой дождь н/о +17.3 +15.9 91 +16 +16 1013.8 1009.0
16 15.07 Ю 5 22 км слаб. ливневой дождь н/о +16.9 +15.5 91 +16 +16 1013.6 1008.8
17 15.07 ЮЗ 7 18 км в посл. час морось н/о +17.6 +16.2 91 +17 +17 1013.3 1008.4
18 15.07 ЮЗ 6 20 км в посл. час морось {ливн. осадки, дождь} н/о +17.9 +16.2 90 +17 +17 1013.0 1008.1 +17.9 3
19 15.07 ЮЗ 6 27 км н/о +17.6 +15.6 88 +17 +17 1013.1 1008.3
20 15.07 ЮЗ 4 24 км слаб. ливневой дождь н/о +17.0 +15.5 91 +17 +17 1013.2 1008.3
21 15.07 ЮЗ 3 16 км {ливн. осадки} н/о +16.5 +15.3 93 +16 +16 1013.4 1008.5
22 15.07 С 3 35 км н/о +16.4 +14.7 90 +16 +16 1013.9 1009.0
23 15.07 С 3 15 км н/о +15.8 +13.9 88 +15 +15 1014.1 1009.2
00 16.07 СЗ 5 5000 м дождь {ливн. осадки} н/о +14.4 +13.5 94 +13 +13 1014.4 1009.5 2
01 16.07 СЗ 3 10 км слаб. ливневой дождь н/о +14.2 +13.3 94 +13 +13 1014.4 1009.5
02 16.07 СЗ 2 18 км в посл. час морось н/о +14.3 +13.2 93 +14 +14 1014.1 1009.2
03 16.07 З 3 13 км {ливн. осадки, морось} н/о +14.3 +13.5 95 +13 +13 1014.2 1009.3
04 16.07 СЗ 4 23 км н/о +13.7 +12.4 92 +12 +12 1014.2 1009.3
05 16.07 СЗ 4 22 км н/о +13.2 +11.8 91 +11 +11 1014.4 1009.5
06 16.07 СЗ 3 27 км {ливн. осадки, морось} н/о +13.4 +11.6 89 +12 +12 1014.4 1009.5 +13.2 2
07 16.07 СЗ 4 30 км н/о +13.9 +11.5 85 +12 +12 1014.7 1009.7
08 16.07 СЗ 1 26 км н/о +15.1 +12.6 85 +16 +16 1014.7 1009.8
09 16.07 СЗ 1 23 км н/о +16.7 +11.7 72 +18 +18 1014.8 1009.9
10 16.07 С 1 40 км н/о +17.3 +10.2 63 +18 +18 1014.8 1009.9
11 16.07 ЮЗ 2 40 км н/о +17.8 +12.5 71 +18 +18 1014.7 1009.9
12 16.07 СЗ 7 45 км н/о +17.1 +11.0 67 +16 +16 1014.8 1009.9
13 16.07 Ю 6 27 км н/о +18.1 +12.7 71 +18 +18 1014.6 1009.8
14 16.07 З 4 45 км н/о +17.7 +10.8 64 +17 +17 1014.7 1009.9
15 16.07 ЮЗ 3 35 км н/о +18.2 +11.8 66 +19 +19 1014.4 1009.6
16 16.07 З 7 35 км н/о +18.6 +9.8 57 +18 +18 1014.3 1009.5
17 16.07 З 5 45 км н/о +19.2 +9.9 55 +20 +20 1014.2 1009.4
18 16.07 СЗ 6 35 км н/о +18.6 +9.4 55 +19 +19 1014.5 1009.6 +19.9
19 16.07 СЗ 6 50 км н/о +17.4 +10.0 62 +17 +17 1015.0 1010.2
20 16.07 З 7 50 км н/о +16.9 +9.1 60 +16 +16 1015.4 1010.5
21 16.07 З 5 50 км н/о +15.4 +9.6 68 +14 +14 1016.1 1011.2
22 16.07 СЗ 4 50 км н/о +14.0 +9.8 76 +13 +13 1016.4 1011.5
23 16.07 З 4 50 км н/о +13.5 +10.1 80 +12 +12 1016.4 1011.5
00 17.07 З 5 50 км н/о +13.3 +10.2 81 +11 +11 1016.2 1011.2
01 17.07 З 5 50 км н/о +14.3 +10.0 75 +13 +13 1015.9 1011.0
02 17.07 З 4 50 км н/о +13.7 +9.7 77 +12 +12 1015.8 1010.9
03 17.07 З 3 50 км н/о +13.8 +9.9 77 +13 +13 1015.6 1010.7
04 17.07 З 2 50 км н/о +13.9 +10.4 79 +13 +13 1015.5 1010.6
05 17.07 З 3 50 км н/о +13.9 +10.6 80 +13 +13 1015.8 1010.8
06 17.07 С 3 45 км н/о +14.0 +10.8 81 +13 +13 1015.7 1010.7 +13.2
07 17.07 ЮЗ 4 50 км н/о +14.7 +10.7 77 +14 +14 1015.9 1010.9
08 17.07 ЮЗ 2 45 км н/о +15.7 +10.2 70 +16 +16 1015.6 1010.7
09 17.07 Ю 3 45 км н/о +15.9 +10.4 70 +15 +15 1015.8 1010.9
10 17.07 Ю 5 45 км н/о +17.3 +11.3 68 +17 +17 1015.6 1010.7
11 17.07 Ю 5 45 км н/о +16.2 +11.9 76 +15 +15 1015.6 1010.7
12 17.07 Ю 6 35 км н/о +16.8 +12.3 75 +16 +16 1015.4 1010.5
13 17.07 Ю 3 40 км в посл. час морось {ливн. осадки} н/о +17.4 +13.9 80 +17 +17 1015.1 1010.3
14 17.07 Ю 5 35 км н/о +16.9 +13.2 79 +16 +16 1015.0 1010.1
15 17.07 Ю 7 30 км {ливн. осадки} н/о +17.1 +13.2 78 +16 +16 1014.7 1009.8
16 17.07 Ю 7 30 км н/о +17.0 +13.0 77 +16 +16 1014.3 1009.4
17 17.07 ЮЗ 8 29 км н/о +18.2 +12.6 70 +18 +18 1014.2 1009.4
18 17.07 Ю 6 25 км {ливн. осадки} н/о +18.1 +13.0 72 +18 +18 1014.3 1009.4 +18.4 0.0
19 17.07 ЮЗ 7 24 км н/о +17.3 +12.5 73 +16 +16 1014.5 1009.7
20 17.07 ЮЗ 6 22 км н/о +15.9 +12.1 78 +15 +15 1014.8 1009.9
21 17.07 З 5 25 км н/о +15.4 +12.0 80 +14 +14 1015.2 1010.3
22 17.07 СЗ 5 35 км н/о +16.0 +11.5 75 +15 +15 1015.4 1010.5
23 17.07 С 5 50 км н/о +15.9 +9.8 67 +15 +15 1015.8 1010.9
00 18.07 СЗ 6 50 км н/о +15.2 +11.1 77 +14 +14 1015.9 1011.0
01 18.07 СЗ 5 45 км н/о +14.9 +11.4 80 +13 +13 1016.1 1011.1
02 18.07 СЗ 5 50 км н/о +14.7 +11.3 80 +13 +13 1016.1 1011.1
03 18.07 СЗ 4 45 км н/о +14.3 +11.1 81 +13 +13 1016.1 1011.2
04 18.07 З 4 50 км н/о +14.1 +11.2 83 +13 +13 1016.3 1011.4
05 18.07 СЗ 3 50 км н/о +14.1 +11.1 82 +13 +13 1016.8 1011.9
06 18.07 СЗ 4 50 км н/о +14.3 +11.3 82 +13 +13 1017.2 1012.3 +14.0
07 18.07 СЗ 3 40 км н/о +14.8 +11.6 81 +14 +14 1017.6 1012.7
08 18.07 СЗ 3 40 км н/о +15.4 +11.6 78 +15 +15 1018.0 1013.1
09 18.07 СЗ 3 40 км н/о +16.6 +11.8 73 +16 +16 1018.0 1013.1
10 18.07 СЗ 2 45 км н/о +18.0 +9.5 58 +19 +19 1018.1 1013.2
11 18.07 Ю 4 24 км н/о +17.7 +12.3 71 +17 +17 1018.3 1013.4
12 18.07 Ю 4 35 км н/о +17.5 +11.6 68 +17 +17 1018.5 1013.6
13 18.07 Ю 4 40 км н/о +17.4 +11.9 70 +17 +17 1018.6 1013.7
14 18.07 Ю 6 45 км н/о +18.7 +10.9 60 +19 +19 1018.7 1013.8
15 18.07 Ю 7 45 км н/о +17.4 +11.3 67 +16 +16 1018.8 1013.9
16 18.07 Ю 5 45 км н/о +18.3 +10.3 60 +18 +18 1018.7 1013.9
17 18.07 Ю 5 40 км н/о +18.0 +10.3 61 +18 +18 1018.8 1013.9
18 18.07 Ю 5 45 км н/о +17.2 +10.4 64 +17 +17 1018.9 1014.0 +19.2
19 18.07 ЮЗ 6 50 км н/о +17.3 +9.5 60 +17 +17 1019.4 1014.5
20 18.07 ЮЗ 5 50 км н/о +16.9 +10.0 64 +16 +16 1019.4 1014.5
21 18.07 СЗ 4 50 км н/о +17.1 +10.1 63 +17 +17 1019.7 1014.8
22 18.07 С 6 50 км н/о +16.0 +9.6 66 +15 +15 1020.0 1015.1
23 18.07 С 6 50 км н/о +15.0 +9.0 67 +13 +13 1020.1 1015.2
00 19.07 С 6 50 км н/о +14.5 +9.1 70 +13 +13 1020.4 1015.5
01 19.07 СЗ 8 50 км н/о +14.1 +9.1 72 +12 +12 1020.3 1015.4
02 19.07 С 5 50 км н/о +13.8 +9.0 73 +12 +12 1020.4 1015.4
03 19.07 С 6 50 км н/о +13.3 +8.6 73 +11 +11 1020.4 1015.5
04 19.07 С 5 50 км н/о +13.7 +8.3 70 +12 +12 1020.5 1015.6
05 19.07 С 5 50 км н/о +13.7 +7.9 68 +12 +12 1020.5 1015.5
06 19.07 СЗ 5 50 км н/о +13.8 +8.3 69 +12 +12 1020.6 1015.6 +13.0
07 19.07 СЗ 4 50 км н/о +14.1 +9.2 72 +13 +13 1020.8 1015.9
08 19.07 СЗ 4 50 км н/о +15.1 +9.0 67 +14 +14 1021.0 1016.0
09 19.07 СЗ 5 45 км н/о +16.2 +9.3 64 +15 +15 1021.1 1016.2
10 19.07 СЗ 4 30 км н/о +17.9 +9.2 57 +18 +18 1021.0 1016.1
11 19.07 СЗ 2 35 км н/о +18.7 +8.4 51 +20 +20 1020.8 1015.9
12 19.07 Ю 3 35 км н/о +19.4 +9.0 51 +21 +21 комфорт 1020.7 1015.8
13 19.07 Ю 6 30 км н/о +18.4 +11.1 62 +18 +18 1020.4 1015.5
14 19.07 Ю 7 30 км н/о +19.2 +10.4 57 +20 +20 1020.0 1015.1
15 19.07 Ю 7 35 км н/о +19.4 +9.2 52 +20 +20 1019.8 1015.0
16 19.07 Ю 7 30 км н/о +19.0 +9.2 53 +19 +19 1019.5 1014.6
17 19.07 Ю 6 29 км н/о +18.4 +9.8 57 +18 +18 1019.4 1014.5
18 19.07 ЮЗ 6 45 км н/о +18.9 +9.8 55 +19 +19 1019.2 1014.3 +20.1
19 19.07 ЮЗ 5 50 км н/о +18.1 +9.4 57 +18 +18 1019.0 1014.2
20 19.07 Ю 3 50 км н/о +16.1 +10.9 71 +16 +16 1019.1 1014.2
21 19.07 Ю 2 50 км н/о +15.4 +9.8 69 +15 +15 1018.9 1014.0
22 19.07 СЗ 5 50 км н/о +16.1 +10.5 69 +15 +15 1019.1 1014.2
23 19.07 СЗ 7 50 км н/о +16.0 +11.1 73 +15 +15 1018.8 1013.9

 

Местоположение метеостанции Roches Point (Ирландия): широта 51.80 долгота -8.25 высота над уровнем моря 41 м.

В архиве по умолчанию представлена погода в Roches Point за последнюю неделю. Архивные данные за месяц целиком и за предыдущие месяцы, начиная с января 2011 года, Вы можете получить, выбрав интересующий диапазон дат из раскрывающегося списка и нажав кнопку "Ввод!".


*Определитесь, кто Вы:
робот инопланетянин человек

Внимание! Время в таблицах - всемирное. Для получения местного времени необходимо прибавить поправку, которая в Roches Point равна 0 ч.

Смотрите также архив погоды в соседних городах и на ближайших метеорологических станциях:

Погода в Cork Airport (Ирландия) (17 км)
Погода в Sherkin Island (Ирландия) (89 км)
Погода в Shannon Airport (Ирландия) (109 км)
Погода в Johnstown Castle (Ирландия) (132 км)
Погода в Gurteen (Ирландия) (138 км)
Погода в Valentia Observatory (Ирландия) (138 км)
Погода в Oak Park, Carlow (Ирландия) (149 км)
Погода в Mace Head (Ирландия) (203 км)
Погода в Mullingar (Ирландия) (203 км)
Погода в Casement Aerodrome (Ирландия) (208 км)

Пояснения к столбцам:

Ветер - указаны скорость ветра в м/с - средняя за 10 мин, порывы в срок и между сроками (в фигурных скобках) и направление, откуда дует ветер: С - северный, СВ - северо-восточный, В - восточный, ЮВ - юго-восточный, Ю - южный, ЮЗ - юго-западный, З - западный, СЗ - северо-западный.
Видимость - горизонтальная дальность видимости в метрах или километрах. При видимости от 1 до 10 км при отсутствии осадков обычно наблюдается дымка, при ухудшении видимости до 1 км и менее - туман. В сухую погоду видимость может ухудшаться дымом, пылью или мглою.
Явления - указаны атмосферные явления, наблюдавшиеся в срок или в последний час перед сроком; фигурными скобками обозначены явления, наблюдавшиеся между сроками (за 1-3 часа до срока); квадратными скобками обозначены град или гололедные отложения с указанием их диаметра в мм.
Облачность - указаны через наклонную черту общая и нижняя облачность в баллах и высота нижней границы облаков в метрах; квадратными скобками обозначены формы облаков: Ci - перистые, Cs - перисто-слоистые, Cc - перисто-кучевые, Ac - высококучевые, As - высокослоистые, Sc - слоисто-кучевые, Ns - слоисто-дождевые, Cu - кучевые, Cb - кучево-дождевые. Подробнее классификацию облаков см. в Атласе облаков (PDF).
T - Температура воздуха - температура, измеренная на высоте 2 м над землей.
Td - Температура точки росы - температура, при понижении до которой содержащийся в воздухе водяной пар достигнет насыщения.
f - Относительная влажность воздуха - влажноcть воздуха, измеренная на высоте 2 м над землей.
Te - Эффективная температура - температура, которую ощущает одетый по сезону человек в тени. Характеристика душности погоды. При расчете учитывается влияние влажности воздуха и скорости ветра на теплоощущения человека.
Tes - Эффективная температура на солнце - температура, которую ощущает человек, с поправкой на солнечный нагрев. Характеристика знойности погоды. Зависит от высоты солнца над горизонтом, облачности и скорости ветра. Ночью, в пасмурную погоду, а также при ветре 12 м/с и более поправка равна нулю.
P - Атмосферное давление - приведенное к уровню моря атмосферное давление.
Po - Атмосферное давление - измеренное на уровне метеостанции атмосферное давление.
Tmin - Минимальная температура - минимум температуры воздуха на высоте 2 м над землей.
Tmax - Максимальная температура - максимум температуры воздуха на высоте 2 м над землей.
R - Количество осадков - Количество выпавших осадков за период времени, мм. При наведении курсора мыши на число - период времени, за который выпало указанное количество осадков.
R24 - Количество осадков - Количество выпавших осадков за 24 часа, мм.
S - Снежный покров - Высота снежного покрова, см. При наведении курсора мыши на число - состояние снежного покрова и степень покрытия местности в баллах.